Regional Weather Roundup
Issued by NWS

Home | Current Version | Previous Version | Graphics & Text | Print | Product List | Glossary On
Versions: 1 2 3 4 5 6 7 8 9 10 11 12 13 14 15 16 17 18 19 20 21 22 23 24 25 26 27 28 29 30 31 32 33 34 35 36 37 38 39 40 41 42 43 44 45 46 47 48 49 50
000
ASUS43 KTOP 170308
RWRKS

WEATHER ROUNDUP FOR KANSAS
NATIONAL WEATHER SERVICE GOODLAND KS
900 PM CST SAT DEC 16 2017

NOTE:  "FAIR" INDICATES FEW OR NO CLOUDS BELOW 12,000 FEET WITH NO
SIGNIFICANT WEATHER AND/OR OBSTRUCTIONS TO VISIBILITY.

KSZ001>006-013>018-027>032-041>047-170400-
NORTHWEST KANSAS

CITY           SKY/WX    TMP DP  RH WIND       PRES   REMARKS
GOODLAND       CLOUDY    31  25  78 N15       29.86R WCI  20
HAYS           CLOUDY    37  20  50 CALM      29.82R
HILL CITY      CLOUDY    38  21  50 NE8       29.86R
RUSSELL        CLOUDY    46  25  43 S12       29.81S
$$

KSZ061>065-074>080-084>089-170400-
SOUTHWEST KANSAS

CITY           SKY/WX    TMP DP  RH WIND       PRES   REMARKS
DODGE CITY     CLOUDY    49  26  41 S13       29.82R
ELKHART        PTCLDY    38  23  55 S10       29.75S WCI  31
GARDEN CITY    CLEAR     38  18  44 SE10      29.78R WCI  31
GREAT BEND     CLOUDY    50  26  39 S16       29.85R
LIBERAL        MOCLDY    50  26  39 S16       29.78R
PRATT          CLOUDY    50  25  36 S9        29.86R
$$

KSZ066>073-081>083-090>101-170400-
SOUTHEAST KANSAS

CITY           SKY/WX    TMP DP  RH WIND       PRES   REMARKS
CHANUTE        MOCLDY    51  28  41 SE10      29.97R
COFFEYVILLE    CLOUDY    54  29  38 S13       29.97S
HUTCHINSON     MOCLDY    52  28  39 S13       29.88R
MEDICINE LODGE   N/A     50  27  40 S8        29.84F
NEWTON         CLOUDY    49  26  41 S8        29.90R
PARSONS        CLOUDY    53  28  38 S8        29.98R
WICHITA INTL   MOCLDY    52  28  39 S10       29.89S
WICHITA JABRA  CLOUDY    51  27  39 S8        29.90R
WICHITA MCCONL CLOUDY    52  25  35 S10       29.89S
WINFIELD       CLOUDY    53  26  35 S15G21    29.92S
$$

KSZ007>012-019>026-033>040-048>060-102>105-170400-
NORTHEAST KANSAS

CITY           SKY/WX    TMP DP  RH WIND       PRES   REMARKS
CONCORDIA      PTCLDY    35  24  64 SE3       29.87S
EMPORIA        MOCLDY    46  25  43 S9        29.93R
LAWRENCE       CLOUDY    42  28  57 E7        29.95R
MANHATTAN      CLOUDY    46  25  43 CALM      29.91R
MARYSVILLE     CLOUDY    37  25  60 CALM      29.90S
OLATHE IND     CLOUDY    47  27  45 SE8       29.97R
OLATHE EXE     CLOUDY    43  27  53 S7        29.96R
SALINA         CLOUDY    49  28  44 S8        29.88S
TOPEKA BILLARD PTCLDY    39  29  67 E5        29.94R
TOPEKA FORBES  CLOUDY    45  25  45 SE8       29.93R
$$



USA.gov is the U.S. government's official web portal to all federal, state and local government web resources and services.